Location: Mercogliano
(40.9167°N, 14.7333°E)
Time: 07:35:55
(UTC+00:00)

ARGOS - Pass Details

Date: 18 September 2020
Orbit: 821 x 834 km, 98.4° (Epoch: 26 October)

Event Time Altitude Azimuth Distance (km) Brightness Sun altitude
Rises 17:32:06 0° 139° (SE) 3,341 5.9 -6.0°
Reaches altitude 10° 17:34:38 10° 130° (SE) 2,413 5.1 -6.5°
Maximum altitude 17:39:21 33° 68° (ENE) 1,348 3.9 -7.4°
Drops below altitude 10° 17:44:07 10° 5° (N) 2,432 5.7 -8.3°
Sets 17:46:40 0° 357° (N) 3,371 6.5 -8.7°
